{"data":{"norad_id":63420,"epoch":"2026-09-20T05:12:29.275200Z","epoch_age_seconds":183309,"freshness":"STALE","line1":"1 63420U 25065X   26263.21700550  .00010128  00000+0  37702-3 0  9995","line2":"2 63420  42.9999  88.1391 0001085 280.1267  79.9462 15.27583648 82599","mean_motion":15.27583648,"eccentricity":0.0001085,"inclination_deg":42.9999,"raan_deg":88.1391,"arg_perigee_deg":280.1267,"mean_anomaly_deg":79.9462,"bstar":0.00037702,"rev_number":8259,"period_min":94.266523596618,"perigee_km":482.2937351308,"apogee_km":483.78261014326,"semimajor_km":6861.175172637,"source":"CELESTRAK","updated_at":"2026-09-21T09:00:34.982070Z"}}